Regional Weather Roundup
Issued by NWS

Home | Current Version | Previous Version | Text Only | Print | Product List | Glossary Off
Versions: 1 2 3 4 5 6 7 8 9 10 11 12 13 14 15 16 17 18 19 20 21 22 23 24 25 26 27 28 29 30 31 32 33 34 35 36 37 38 39 40 41 42 43 44 45 46 47 48 49 50

000
ASUS43 KDTX 172010
RWRMI
MICHIGAN HOURLY REGIONAL WEATHER ROUNDUP
NATIONAL WEATHER SERVICE DETROIT/PONTIAC MI
400 PM EDT THU AUG 17 2017

NOTE: "FAIR" INDICATES FEW OR NO CLOUDS BELOW 12,000 FEET WITH NO
SIGNIFICANT WEATHER AND/OR OBSTRUCTION TO VISIBILITY.

MIZ047>049-052>055-059>063-066>070-074>076-081>083-172100-
SOUTHEAST LOWER MICHIGAN

CITY           SKY/WX    TMP DP  RH WIND       PRES   REMARKS
ADRIAN         CLOUDY    81  68  64 SW14      29.77F
ALMA           PTSUNNY   78  72  80 S14       29.71F
ANN ARBOR      CLOUDY    76  73  91 SE7       29.76F
BAD AXE        LGT RAIN  74  72  93 S6        29.76F
CARO           LGT RAIN  75  72  89 SE3       29.74F
DETROIT CITY   CLOUDY    76  74  93 S10       29.78F
DETROIT        LGT RAIN  75  72  90 SE9       29.77F
FLINT          CLOUDY    79  70  74 S15G25    29.74F
GROSSE ILE     LGT RAIN  72  71  95 SE6       29.76F
HILLSDALE      CLOUDY    81  70  69 SW14      29.77F
HOWELL         PTSUNNY   80  71  73 S13G18    29.75F

CITY           SKY/WX    TMP DP  RH WIND       PRES   REMARKS
JACKSON          N/A     81  72  74 S14       29.75F
LAMBERTVILLE   CLOUDY    77  74  92 S9        29.76F FOG
LANSING        MOSUNNY   83  71  67 S9G24     29.72F
LAPEER         CLOUDY    78  71  79 S14G20    29.75F
MASON          CLOUDY    81  72  74 CALM      29.74F
MONROE         CLOUDY    76  74  93 CALM      29.77F
MT. CLEMENS    PTSUNNY   75  75 100 SE9       29.76F
PONTIAC        CLOUDY    77  72  84 S13       29.75F
PORT HOPE        N/A     71  69  93 SE10      29.74F
PORT HURON     RAIN      77  73  88 S10       29.78F
TRI CITIES     CLOUDY    78  74  87 S9        29.73F
MIDLAND        CLOUDY    78  72  80 S8        29.71F
TROY           CLOUDY    77  75  92 SE3       29.78F
SAGINAW HB     CLOUDY    73  72  94 SE6       29.73F
$$
MIZ043>046-050>051-056>058-064>065-071>073-077>080-172100-
SOUTHWEST LOWER MICHIGAN

CITY           SKY/WX    TMP DP  RH WIND       PRES   REMARKS
BATTLE CREEK   PTSUNNY   84  71  65 SW14      29.74F
BENTON HARBOR  CLOUDY    84  67  56 SW18G25   29.74S
BIG RAPIDS     CLOUDY    74  67  80 SW7       29.70F
COLDWATER      CLOUDY    81  72  73 SW10G16   29.76S
FREMONT        CLOUDY    73  73  99 S10       29.70S
HOLLAND        CLOUDY    80  70  71 SW20G29   29.72F
GRAND RAPIDS   PTSUNNY   82  71  69 W18       29.72S
IONIA          PTSUNNY   80  73  80 SW6       29.71F
KALAMAZOO      CLOUDY    85  67  54 SW14      29.73F
LUDINGTON      PTSUNNY   75  69  81 SW15      29.65F
MARSHALL       CLOUDY    82  70  65 SW9G20    29.74F
MOUNT PLEASANT CLOUDY    81  72  73 S10G16    29.70F
MUSKEGON       PTSUNNY   78  71  79 S15G28    29.69F
SOUTH HAVEN    MOSUNNY   80  70  70 SW15      29.73F
$$
MIZ016>042-172100-
NORTHERN LOWER MICHIGAN

CITY           SKY/WX    TMP DP  RH WIND       PRES   REMARKS
ALPENA         CLOUDY    70  70 100 SE7       29.72F
BEAVER ISLAND  CLOUDY    74  69  83 S8        29.64F
BELLAIRE       CLOUDY    76  69  78 S6        29.65F
CADILLAC       CLOUDY    77  70  80 SW14      29.69F
CHARLEVOIX     LGT RAIN  75  71  87 SE7       29.67F
FRANKFORT      MOSUNNY   80  73  79 S10G17    29.62F
GAYLORD        CLOUDY    72  66  81 S9        29.70F
GRAYLING       CLOUDY    74  69  83 SE9G18    29.70F
HARBOR SPRINGS CLOUDY    74  69  86 S3        29.66F
HOUGHTON LAKE  HVY RAIN  72  70  93 SE8       29.70F VSB 3/4
MANISTEE       PTSUNNY   77  71  82 S8G17     29.63F
OSCODA         CLOUDY    72  70  93 S9G16     29.72F FOG
PELLSTON       LGT RAIN  73  70  90 SE6       29.67F
ROGERS CITY    CLOUDY    69  67  94 SE12      29.72S FOG
TRAVERSE CITY  LGT RAIN  76  72  87 VRB6      29.63F
$$
MIZ007>008-015-172100-
EASTERN UPPER MICHIGAN

CITY           SKY/WX    TMP DP  RH WIND       PRES   REMARKS
KINROSS        CLOUDY    66  65  96 SE17      29.70F
MACKINAC ISLAN CLOUDY    65  65 100 E13G22    29.68F FOG
NEWBERRY       CLOUDY    67  67  97 SE9       29.64F
S. S. MARIE    CLOUDY    66  64  93 SE10G22   29.70F FOG
MUNISING         N/A     72  71  97 SE8       29.56F
$$
MIZ004>006-011>014-085-172100-
CENTRAL UPPER MICHIGAN

CITY           SKY/WX    TMP DP  RH WIND       PRES   REMARKS
MANISTIQUE     CLOUDY    68  63  82 SE7       29.61S
ESCANABA       LGT RAIN  72  70  94 S8        29.56F
MENOMINEE      PTSUNNY   78  66  66 SW17G24   29.55F
SAWYER-GWINN   PTSUNNY   72  68  88 S12       29.57F
$$
MIZ001>003-009>011-084-172100-
WESTERN UPPER MICHIGAN

CITY           SKY/WX    TMP DP  RH WIND       PRES   REMARKS
IRON MOUNTAIN  CLOUDY    75  66  73 S9        29.53F
HOUGHTON       FOG       65  63  93 E8        29.55S VSB 1/4
COPPER HARBOR    N/A     64  62  93 VRB6      29.55F
IRONWOOD       RAIN      66  65  96 MISG      29.57S
$$

ABBREVIATIONS USED IN REMARKS
   TC - TEMPERATURE IN CELSIUS
  WCI - WIND CHILL INDEX
   HX - HEAT INDEX
  VSB - VISIBILITY





USA.gov is the U.S. government's official web portal to all federal, state and local government web resources and services.